Weather in Kornilovo

Russia / Tomsk District     56°29′42″N   85°10′42″E
temp.,
°C
wind,
m/s
gust,
m/s
humid.,
%
clouds,
%
prec.,
mm/h
press.,
hPa
HPBL,
m
23 april, fri
fri2301:00−3nne28955 0.0 1045160
04:00−4ne27965 0.0 1045139
07:00−3ne27935 0.0 1045172
10:00+2ne35745 0.0 1046556
13:00+5ne466191 0.0 10441594
16:00+5ne465896 0.1 10431583
19:00+4nne37725 0.1 1043423
22:00−1nne29915 0.0 1043164
24 april, sat
sat2401:00−2ne27933 0.0 1042137
04:00−3nne27945 0.0 1040135
07:00−2nne278937 0.0 1039182
10:00+3nne357210 0.0 1037689
13:00+5n3458100 0.0 10351459
16:00+6n3456100 0.1 10331419
19:00+4nnw2478100 0.2 1033102
22:000nw259499 0.1 103372
25 april, sun
sun2501:00−2nnw119697 0.1 103210
04:00−2w119671 0.0 103231
07:00−1w1388100 0.0 103392
10:00+4w23715 0.0 1032398
13:00+7w246188 0.1 10311559
16:00+8w346491 0.1 10311295
19:00+6w23768 0.2 103186
22:00+2ssw11765 0.0 103110
26 april, mon
mon2601:00+1s1182100 0.0 103110
04:000s1184100 0.0 103010
07:00+2sse1183100 0.0 103023
10:00+6s2373100 0.0 1030307
13:00+8ssw3464100 0.0 1029955
16:00+9s3556100 0.0 10271491
19:00+8sse376673 0.0 1026298
22:00+5sse41176100 0.0 1024300
27 april, tue
tue2701:00+4sse41377100 0.0 1021355
04:00+5s51374100 0.0 1018592
07:00+5ssw4109099 2.2 1017502
10:00+8wnw510776 1.8 10171046
13:00+10w611585 2.7 10191944
16:00+12w5104877 0.3 10192826
19:00+10w4953100 0.4 1020554
22:00+6sw2773100 0.0 1021131